Time,TemperatureF,DewpointF,PressureIn,WindDirection,WindDirectionDegrees,WindSpeedMPH,WindSpeedGustMPH,Humidity,HourlyPrecipIn,Conditions,Clouds,dailyrainin,SoftwareType,DateUTC
2013-09-03 00:01:00,64.6,6.9,29.64,North,0,0.0,0.0,1,0.00,,,0.00,WUHU216HW,2013-09-03 04:01:00,
2013-09-03 00:06:00,64.4,6.7,29.63,North,0,0.0,0.0,1,0.00,,,0.00,WUHU216HW,2013-09-03 04:06:00,
2013-09-03 00:11:00,64.3,6.6,29.64,North,0,0.0,0.0,1,0.00,,,0.00,WUHU216HW,2013-09-03 04:11:00,
2013-09-03 00:17:00,64.3,6.6,29.64,North,0,0.0,0.0,1,0.00,,,0.00,WUHU216HW,2013-09-03 04:17:00,
2013-09-03 00:22:00,64.1,6.4,29.64,North,0,0.0,0.0,1,0.00,,,0.00,WUHU216HW,2013-09-03 04:22:00,
2013-09-03 00:27:00,64.1,6.4,29.64,North,0,0.0,0.0,1,0.00,,,0.00,WUHU216HW,2013-09-03 04:27:00,
2013-09-03 00:32:00,64.1,6.4,29.64,North,0,0.0,0.0,1,0.00,,,0.00,WUHU216HW,2013-09-03 04:32:00,
2013-09-03 00:37:00,63.9,6.3,29.64,North,0,0.0,0.0,1,0.00,,,0.00,WUHU216HW,2013-09-03 04:37:00,
2013-09-03 00:42:00,63.9,6.3,29.65,North,0,0.0,0.0,1,0.00,,,0.00,WUHU216HW,2013-09-03 04:42:00,
2013-09-03 00:47:00,63.9,6.3,29.65,North,0,0.0,0.0,1,0.00,,,0.00,WUHU216HW,2013-09-03 04:47:00,
2013-09-03 00:52:00,63.9,6.3,29.65,North,0,0.0,0.0,1,0.00,,,0.00,WUHU216HW,2013-09-03 04:52:00,
2013-09-03 00:57:00,64.1,6.4,29.65,North,0,0.0,0.0,1,0.00,,,0.00,WUHU216HW,2013-09-03 04:57:00,
2013-09-03 01:02:00,64.1,6.4,29.65,North,0,0.0,0.0,1,0.00,,,0.00,WUHU216HW,2013-09-03 05:02:00,
2013-09-03 01:07:00,64.1,6.4,29.66,North,0,0.0,0.0,1,0.00,,,0.00,WUHU216HW,2013-09-03 05:07:00,
2013-09-03 01:12:00,64.1,6.4,29.65,North,0,0.0,0.0,1,0.00,,,0.00,WUHU216HW,2013-09-03 05:12:00,
2013-09-03 01:17:00,63.9,6.3,29.65,North,0,0.0,0.0,1,0.00,,,0.00,WUHU216HW,2013-09-03 05:17:00,
2013-09-03 01:22:00,63.7,6.1,29.65,North,0,0.0,0.0,1,0.00,,,0.00,WUHU216HW,2013-09-03 05:22:00,
2013-09-03 01:27:00,63.5,6.0,29.65,North,0,0.0,0.0,1,0.00,,,0.00,WUHU216HW,2013-09-03 05:27:00,
2013-09-03 01:32:00,63.4,6.0,29.65,North,0,0.0,0.0,1,0.00,,,0.00,WUHU216HW,2013-09-03 05:32:00,
2013-09-03 01:37:00,63.4,6.0,29.65,North,0,0.0,0.0,1,0.00,,,0.00,WUHU216HW,2013-09-03 05:37:00,
2013-09-03 01:42:00,63.4,6.0,29.64,North,0,0.0,0.0,1,0.00,,,0.00,WUHU216HW,2013-09-03 05:42:00,
2013-09-03 01:47:00,63.2,5.8,29.64,North,0,0.0,0.0,1,0.00,,,0.00,WUHU216HW,2013-09-03 05:47:00,
2013-09-03 01:52:00,63.0,5.7,29.65,North,0,0.0,0.0,1,0.00,,,0.00,WUHU216HW,2013-09-03 05:52:00,
2013-09-03 01:57:00,62.8,5.5,29.64,North,0,0.0,0.0,1,0.00,,,0.00,WUHU216HW,2013-09-03 05:57:00,
2013-09-03 02:02:00,63.0,5.7,29.64,North,0,0.0,0.0,1,0.00,,,0.00,WUHU216HW,2013-09-03 06:02:00,
2013-09-03 02:07:00,63.0,5.7,29.64,North,0,0.0,0.0,1,0.00,,,0.00,WUHU216HW,2013-09-03 06:07:00,
2013-09-03 02:12:00,63.2,5.8,29.65,North,0,0.0,0.0,1,0.00,,,0.00,WUHU216HW,2013-09-03 06:12:00,
2013-09-03 02:17:00,63.4,6.0,29.65,North,0,0.0,0.0,1,0.00,,,0.00,WUHU216HW,2013-09-03 06:17:00,
2013-09-03 02:22:00,63.5,6.0,29.65,North,0,0.0,0.0,1,0.00,,,0.00,WUHU216HW,2013-09-03 06:22:00,
2013-09-03 02:27:00,63.5,6.0,29.64,North,0,0.0,0.0,1,0.00,,,0.00,WUHU216HW,2013-09-03 06:27:00,
2013-09-03 02:33:00,63.5,6.0,29.64,North,0,0.0,0.0,1,0.00,,,0.00,WUHU216HW,2013-09-03 06:33:00,
2013-09-03 02:38:00,63.5,6.0,29.64,North,0,0.0,0.0,1,0.00,,,0.00,WUHU216HW,2013-09-03 06:38:00,
2013-09-03 02:43:00,63.5,6.0,29.64,North,0,0.0,0.0,1,0.00,,,0.00,WUHU216HW,2013-09-03 06:43:00,
2013-09-03 02:48:00,63.5,6.0,29.64,North,0,0.0,0.0,1,0.00,,,0.00,WUHU216HW,2013-09-03 06:48:00,
2013-09-03 02:53:00,63.4,6.0,29.63,North,0,0.0,0.0,1,0.00,,,0.00,WUHU216HW,2013-09-03 06:53:00,
2013-09-03 02:58:00,63.0,5.7,29.63,North,0,0.0,0.0,1,0.00,,,0.00,WUHU216HW,2013-09-03 06:58:00,
2013-09-03 03:03:00,63.0,5.7,29.63,North,0,0.0,0.0,1,0.00,,,0.00,WUHU216HW,2013-09-03 07:03:00,
2013-09-03 03:08:00,62.8,5.5,29.63,North,0,0.0,0.0,1,0.00,,,0.00,WUHU216HW,2013-09-03 07:08:00,
2013-09-03 03:13:00,62.6,5.4,29.63,North,0,0.0,0.0,1,0.00,,,0.00,WUHU216HW,2013-09-03 07:13:00,
2013-09-03 03:18:00,62.6,5.4,29.63,North,0,0.0,0.0,1,0.00,,,0.00,WUHU216HW,2013-09-03 07:18:00,
2013-09-03 03:23:00,62.6,5.4,29.63,North,0,0.0,0.0,1,0.00,,,0.00,WUHU216HW,2013-09-03 07:23:00,
2013-09-03 03:28:00,62.6,5.4,29.63,North,0,0.0,0.0,1,0.00,,,0.00,WUHU216HW,2013-09-03 07:28:00,
2013-09-03 03:33:00,62.6,5.4,29.63,North,0,0.0,0.0,1,0.00,,,0.00,WUHU216HW,2013-09-03 07:33:00,
2013-09-03 03:38:00,62.8,5.5,29.63,North,0,0.0,0.0,1,0.00,,,0.00,WUHU216HW,2013-09-03 07:38:00,
2013-09-03 03:43:00,62.6,5.4,29.63,North,0,0.0,0.0,1,0.00,,,0.00,WUHU216HW,2013-09-03 07:43:00,
2013-09-03 03:48:00,62.6,5.4,29.63,North,0,0.0,0.0,1,0.00,,,0.00,WUHU216HW,2013-09-03 07:48:00,
2013-09-03 03:53:00,62.6,5.4,29.63,North,0,0.0,0.0,1,0.00,,,0.00,WUHU216HW,2013-09-03 07:53:00,
2013-09-03 03:58:00,62.5,5.2,29.63,North,0,0.0,0.0,1,0.00,,,0.00,WUHU216HW,2013-09-03 07:58:00,
2013-09-03 04:03:00,62.5,5.2,29.63,North,0,0.0,0.0,1,0.00,,,0.00,WUHU216HW,2013-09-03 08:03:00,
2013-09-03 04:08:00,62.1,5.0,29.63,North,0,0.0,0.0,1,0.00,,,0.00,WUHU216HW,2013-09-03 08:08:00,
2013-09-03 04:13:00,61.9,4.9,29.63,North,0,0.0,0.0,1,0.00,,,0.00,WUHU216HW,2013-09-03 08:13:00,
2013-09-03 04:18:00,61.9,4.9,29.64,North,0,0.0,0.0,1,0.00,,,0.00,WUHU216HW,2013-09-03 08:18:00,
2013-09-03 04:23:00,61.7,4.7,29.63,North,0,0.0,0.0,1,0.00,,,0.00,WUHU216HW,2013-09-03 08:23:00,
2013-09-03 04:28:00,61.6,4.5,29.63,North,0,0.0,0.0,1,0.00,,,0.00,WUHU216HW,2013-09-03 08:28:00,
2013-09-03 04:33:00,61.6,4.5,29.63,North,0,0.0,0.0,1,0.00,,,0.00,WUHU216HW,2013-09-03 08:33:00,
2013-09-03 04:38:00,61.4,4.4,29.63,North,0,0.0,0.0,1,0.00,,,0.00,WUHU216HW,2013-09-03 08:38:00,
2013-09-03 04:43:00,61.4,4.4,29.63,North,0,0.0,0.0,1,0.00,,,0.00,WUHU216HW,2013-09-03 08:43:00,
2013-09-03 04:49:00,61.2,4.2,29.64,North,0,0.0,0.0,1,0.00,,,0.00,WUHU216HW,2013-09-03 08:49:00,
2013-09-03 04:54:00,61.2,4.2,29.63,North,0,0.0,0.0,1,0.00,,,0.00,WUHU216HW,2013-09-03 08:54:00,
2013-09-03 04:59:00,61.0,4.2,29.64,North,0,0.0,0.0,1,0.00,,,0.00,WUHU216HW,2013-09-03 08:59:00,
2013-09-03 05:04:00,61.0,4.2,29.64,North,0,0.0,0.0,1,0.00,,,0.00,WUHU216HW,2013-09-03 09:04:00,
2013-09-03 05:09:00,61.0,4.2,29.64,North,0,0.0,0.0,1,0.00,,,0.00,WUHU216HW,2013-09-03 09:09:00,
2013-09-03 05:14:00,61.0,4.2,29.64,North,0,0.0,0.0,1,0.00,,,0.00,WUHU216HW,2013-09-03 09:14:00,
2013-09-03 05:19:00,61.0,4.2,29.64,North,0,0.0,0.0,1,0.00,,,0.00,WUHU216HW,2013-09-03 09:19:00,
2013-09-03 05:24:00,61.0,4.2,29.64,North,0,0.0,0.0,1,0.00,,,0.00,WUHU216HW,2013-09-03 09:24:00,
2013-09-03 05:29:00,61.2,4.2,29.64,North,0,0.0,0.0,1,0.00,,,0.00,WUHU216HW,2013-09-03 09:29:00,
2013-09-03 05:34:00,61.0,4.2,29.64,North,0,0.0,0.0,1,0.00,,,0.00,WUHU216HW,2013-09-03 09:34:00,
2013-09-03 05:39:00,61.2,4.2,29.65,North,0,0.0,0.0,1,0.00,,,0.00,WUHU216HW,2013-09-03 09:39:00,
2013-09-03 05:44:00,61.2,4.2,29.65,North,0,0.0,0.0,1,0.00,,,0.00,WUHU216HW,2013-09-03 09:44:00,
2013-09-03 05:49:00,61.2,4.2,29.65,North,0,0.0,0.0,1,0.00,,,0.00,WUHU216HW,2013-09-03 09:49:00,
2013-09-03 05:54:00,61.4,4.4,29.65,North,0,0.0,0.0,1,0.00,,,0.00,WUHU216HW,2013-09-03 09:54:00,
2013-09-03 05:59:00,61.4,4.4,29.65,North,0,0.0,0.0,1,0.00,,,0.00,WUHU216HW,2013-09-03 09:59:00,
2013-09-03 06:04:00,61.4,4.4,29.66,North,0,0.0,0.0,1,0.00,,,0.00,WUHU216HW,2013-09-03 10:04:00,
2013-09-03 06:09:00,61.4,4.4,29.65,North,0,0.0,0.0,1,0.00,,,0.00,WUHU216HW,2013-09-03 10:09:00,
2013-09-03 06:14:00,61.4,4.4,29.65,North,0,0.0,0.0,1,0.00,,,0.00,WUHU216HW,2013-09-03 10:14:00,
2013-09-03 06:19:00,61.4,4.4,29.66,North,0,0.0,0.0,1,0.00,,,0.00,WUHU216HW,2013-09-03 10:19:00,
2013-09-03 06:24:00,61.6,4.5,29.66,North,0,0.0,0.0,1,0.00,,,0.00,WUHU216HW,2013-09-03 10:24:00,
2013-09-03 06:29:00,61.6,4.5,29.67,North,0,0.0,0.0,1,0.00,,,0.00,WUHU216HW,2013-09-03 10:29:00,
2013-09-03 06:34:00,61.6,4.5,29.67,North,0,0.0,0.0,1,0.00,,,0.00,WUHU216HW,2013-09-03 10:34:00,
2013-09-03 06:39:00,61.6,4.5,29.67,North,0,0.0,0.0,1,0.00,,,0.00,WUHU216HW,2013-09-03 10:39:00,
2013-09-03 06:44:00,61.6,4.5,29.67,North,0,0.0,0.0,1,0.00,,,0.00,WUHU216HW,2013-09-03 10:44:00,
2013-09-03 06:49:00,61.7,4.7,29.67,North,0,0.0,0.0,1,0.00,,,0.00,WUHU216HW,2013-09-03 10:49:00,
2013-09-03 06:54:00,61.7,4.7,29.68,North,0,0.0,0.0,1,0.00,,,0.00,WUHU216HW,2013-09-03 10:54:00,
2013-09-03 06:59:00,61.7,4.7,29.68,North,0,0.0,0.0,1,0.00,,,0.00,WUHU216HW,2013-09-03 10:59:00,
2013-09-03 07:04:00,61.7,4.7,29.68,North,0,0.0,0.0,1,0.00,,,0.00,WUHU216HW,2013-09-03 11:04:00,
2013-09-03 07:09:00,61.7,4.7,29.68,North,0,0.0,0.0,1,0.00,,,0.00,WUHU216HW,2013-09-03 11:09:00,
2013-09-03 07:14:00,61.6,4.5,29.68,North,0,0.0,0.0,1,0.00,,,0.00,WUHU216HW,2013-09-03 11:14:00,
2013-09-03 07:20:00,61.7,4.7,29.69,North,0,0.0,0.0,1,0.00,,,0.00,WUHU216HW,2013-09-03 11:20:00,
2013-09-03 07:25:00,61.7,4.7,29.69,North,0,0.0,0.0,1,0.00,,,0.00,WUHU216HW,2013-09-03 11:25:00,
2013-09-03 07:30:00,61.7,4.7,29.69,North,0,0.0,0.0,1,0.00,,,0.00,WUHU216HW,2013-09-03 11:30:00,
2013-09-03 07:35:00,61.9,4.9,29.69,North,0,0.0,0.0,1,0.00,,,0.00,WUHU216HW,2013-09-03 11:35:00,
2013-09-03 07:40:00,62.3,5.1,29.69,North,0,0.0,0.0,1,0.00,,,0.00,WUHU216HW,2013-09-03 11:40:00,
2013-09-03 07:45:00,62.3,5.1,29.69,North,0,0.0,0.0,1,0.00,,,0.00,WUHU216HW,2013-09-03 11:45:00,
2013-09-03 07:50:00,62.5,5.2,29.69,North,0,0.0,0.0,1,0.00,,,0.00,WUHU216HW,2013-09-03 11:50:00,
2013-09-03 07:55:00,62.5,5.2,29.69,North,0,0.0,0.0,1,0.00,,,0.00,WUHU216HW,2013-09-03 11:55:00,
2013-09-03 08:00:00,62.5,5.2,29.69,North,0,0.0,0.0,1,0.00,,,0.00,WUHU216HW,2013-09-03 12:00:00,
2013-09-03 08:05:00,62.6,5.4,29.69,North,0,0.0,0.0,1,0.00,,,0.00,WUHU216HW,2013-09-03 12:05:00,
2013-09-03 08:10:00,62.6,5.4,29.69,North,0,0.0,0.0,1,0.00,,,0.00,WUHU216HW,2013-09-03 12:10:00,
2013-09-03 08:15:00,62.8,5.5,29.69,North,0,0.0,0.0,1,0.00,,,0.00,WUHU216HW,2013-09-03 12:15:00,
2013-09-03 08:20:00,63.0,5.7,29.69,North,0,0.0,0.0,1,0.00,,,0.00,WUHU216HW,2013-09-03 12:20:00,
2013-09-03 08:25:00,63.0,5.7,29.69,North,0,0.0,0.0,1,0.00,,,0.00,WUHU216HW,2013-09-03 12:25:00,
2013-09-03 08:30:00,63.0,5.7,29.69,North,0,0.0,0.0,1,0.00,,,0.00,WUHU216HW,2013-09-03 12:30:00,
2013-09-03 08:35:00,63.4,6.0,29.70,North,0,0.0,0.0,1,0.00,,,0.00,WUHU216HW,2013-09-03 12:35:00,
2013-09-03 08:40:00,63.5,6.0,29.70,North,0,0.0,0.0,1,0.00,,,0.00,WUHU216HW,2013-09-03 12:40:00,
2013-09-03 08:45:00,64.1,6.4,29.70,North,0,0.0,0.0,1,0.00,,,0.00,WUHU216HW,2013-09-03 12:45:00,
2013-09-03 08:50:00,64.4,6.7,29.70,North,0,0.0,0.0,1,0.00,,,0.00,WUHU216HW,2013-09-03 12:50:00,
2013-09-03 08:55:00,64.8,6.9,29.70,North,0,0.0,0.0,1,0.00,,,0.00,WUHU216HW,2013-09-03 12:55:00,
2013-09-03 09:00:00,65.2,7.2,29.70,North,0,0.0,0.0,1,0.00,,,0.00,WUHU216HW,2013-09-03 13:00:00,
2013-09-03 09:05:00,65.5,7.6,29.70,North,0,0.0,0.0,1,0.00,,,0.00,WUHU216HW,2013-09-03 13:05:00,
2013-09-03 09:10:00,65.9,7.8,29.69,North,0,0.0,0.0,1,0.00,,,0.00,WUHU216HW,2013-09-03 13:10:00,
2013-09-03 09:15:00,66.2,8.1,29.69,North,0,0.0,0.0,1,0.00,,,0.00,WUHU216HW,2013-09-03 13:15:00,
2013-09-03 09:20:00,66.6,8.4,29.69,North,0,0.0,0.0,1,0.00,,,0.00,WUHU216HW,2013-09-03 13:20:00,
2013-09-03 09:25:00,67.0,8.6,29.70,North,0,0.0,0.0,1,0.00,,,0.00,WUHU216HW,2013-09-03 13:25:00,
2013-09-03 09:30:00,67.7,9.3,29.69,North,0,0.0,0.0,1,0.00,,,0.00,WUHU216HW,2013-09-03 13:30:00,
2013-09-03 09:35:00,67.5,9.1,29.70,North,0,0.0,0.0,5,0.00,,,0.00,WUHU216HW,2013-09-03 13:35:00,
2013-09-03 09:40:00,67.9,9.4,29.70,North,0,0.0,0.0,10,0.00,,,0.00,WUHU216HW,2013-09-03 13:40:00,
2013-09-03 09:45:00,67.9,9.4,29.70,North,0,0.0,0.0,10,0.00,,,0.00,WUHU216HW,2013-09-03 13:45:00,
2013-09-03 09:50:00,68.6,9.9,29.69,North,0,0.0,0.0,8,0.00,,,0.00,WUHU216HW,2013-09-03 13:50:00,
2013-09-03 09:55:00,69.3,21.1,29.69,North,0,0.0,0.0,16,0.00,,,0.00,WUHU216HW,2013-09-03 13:55:00,
2013-09-03 10:00:00,69.5,21.9,29.70,North,0,0.0,0.0,17,0.00,,,0.00,WUHU216HW,2013-09-03 14:00:00,
2013-09-03 10:05:00,69.5,28.7,29.70,North,0,0.0,0.0,22,0.00,,,0.00,WUHU216HW,2013-09-03 14:05:00,
2013-09-03 10:10:00,69.7,32.9,29.70,North,0,0.0,0.0,26,0.00,,,0.00,WUHU216HW,2013-09-03 14:10:00,
2013-09-03 10:15:00,69.7,35.9,29.69,North,0,0.0,0.0,29,0.00,,,0.00,WUHU216HW,2013-09-03 14:15:00,
2013-09-03 10:21:00,70.0,33.2,29.70,North,0,0.0,0.0,26,0.00,,,0.00,WUHU216HW,2013-09-03 14:21:00,
2013-09-03 10:26:00,70.4,35.6,29.69,North,0,0.0,0.0,28,0.00,,,0.00,WUHU216HW,2013-09-03 14:26:00,
2013-09-03 10:31:00,70.7,36.8,29.69,North,0,0.0,0.0,29,0.00,,,0.00,WUHU216HW,2013-09-03 14:31:00,
2013-09-03 10:36:00,70.9,46.6,29.69,North,0,0.0,0.0,42,0.00,,,0.00,WUHU216HW,2013-09-03 14:36:00,
2013-09-03 10:41:00,70.9,45.5,29.69,North,0,0.0,0.0,40,0.00,,,0.00,WUHU216HW,2013-09-03 14:41:00,
2013-09-03 10:46:00,70.9,46.6,29.69,North,0,0.0,0.0,42,0.00,,,0.00,WUHU216HW,2013-09-03 14:46:00,
2013-09-03 10:51:00,71.3,46.4,29.69,North,0,0.0,0.0,41,0.00,,,0.00,WUHU216HW,2013-09-03 14:51:00,
2013-09-03 10:56:00,71.3,47.5,29.69,North,0,0.0,0.0,43,0.00,,,0.00,WUHU216HW,2013-09-03 14:56:00,
2013-09-03 11:01:00,70.9,48.4,29.69,North,0,0.0,0.0,45,0.00,,,0.00,WUHU216HW,2013-09-03 15:01:00,
2013-09-03 11:06:00,70.9,47.8,29.69,North,0,0.0,0.0,44,0.00,,,0.00,WUHU216HW,2013-09-03 15:06:00,
2013-09-03 11:11:00,70.9,47.8,29.69,North,0,0.0,0.0,44,0.00,,,0.00,WUHU216HW,2013-09-03 15:11:00,
2013-09-03 11:16:00,70.9,47.8,29.69,North,0,0.0,0.0,44,0.00,,,0.00,WUHU216HW,2013-09-03 15:16:00,
2013-09-03 11:21:00,70.6,50.5,29.69,North,0,0.0,0.0,49,0.00,,,0.00,WUHU216HW,2013-09-03 15:21:00,
2013-09-03 11:26:00,70.7,54.3,29.68,North,0,0.0,0.0,56,0.00,,,0.00,WUHU216HW,2013-09-03 15:26:00,
2013-09-03 11:31:00,72.0,55.9,29.68,North,0,0.0,0.0,57,0.00,,,0.00,WUHU216HW,2013-09-03 15:31:00,
2013-09-03 11:36:00,73.1,63.5,29.68,North,0,0.0,0.0,72,0.00,,,0.00,WUHU216HW,2013-09-03 15:36:00,
2013-09-03 11:41:00,73.4,63.5,29.68,North,0,0.0,0.0,71,0.00,,,0.00,WUHU216HW,2013-09-03 15:41:00,
2013-09-03 11:46:00,73.4,63.5,29.68,North,0,0.0,0.0,71,0.00,,,0.00,WUHU216HW,2013-09-03 15:46:00,
2013-09-03 11:51:00,74.2,64.2,29.68,North,0,0.0,0.0,71,0.00,,,0.00,WUHU216HW,2013-09-03 15:51:00,
2013-09-03 11:56:00,74.5,64.9,29.68,North,0,0.0,0.0,72,0.00,,,0.00,WUHU216HW,2013-09-03 15:56:00,
2013-09-03 12:01:00,73.8,63.1,29.68,North,0,0.0,0.0,69,0.00,,,0.00,WUHU216HW,2013-09-03 16:01:00,
2013-09-03 12:06:00,73.4,64.4,29.67,North,0,0.0,0.0,73,0.00,,,0.00,WUHU216HW,2013-09-03 16:06:00,
2013-09-03 12:11:00,73.4,63.9,29.67,North,0,0.0,0.0,72,0.00,,,0.00,WUHU216HW,2013-09-03 16:11:00,
2013-09-03 12:16:00,74.3,64.4,29.67,North,0,0.0,0.0,71,0.00,,,0.00,WUHU216HW,2013-09-03 16:16:00,
2013-09-03 12:21:00,76.0,65.9,29.67,North,0,0.0,0.0,71,0.00,,,0.00,WUHU216HW,2013-09-03 16:21:00,
2013-09-03 12:26:00,76.7,64.9,29.66,North,0,0.0,0.0,67,0.00,,,0.00,WUHU216HW,2013-09-03 16:26:00,
2013-09-03 12:31:00,76.9,65.5,29.66,North,0,0.0,0.0,68,0.00,,,0.00,WUHU216HW,2013-09-03 16:31:00,
2013-09-03 12:36:00,76.9,65.5,29.66,North,0,0.0,0.0,68,0.00,,,0.00,WUHU216HW,2013-09-03 16:36:00,
2013-09-03 12:41:00,76.5,65.2,29.67,North,0,0.0,0.0,68,0.00,,,0.00,WUHU216HW,2013-09-03 16:41:00,
2013-09-03 12:46:00,76.0,64.6,29.66,North,0,0.0,0.0,68,0.00,,,0.00,WUHU216HW,2013-09-03 16:46:00,
2013-09-03 12:51:00,75.6,64.7,29.66,North,0,0.0,0.0,69,0.00,,,0.00,WUHU216HW,2013-09-03 16:51:00,
2013-09-03 12:56:00,75.8,65.3,29.66,North,0,0.0,0.0,70,0.00,,,0.00,WUHU216HW,2013-09-03 16:56:00,
2013-09-03 13:01:00,75.2,65.2,29.66,North,0,0.0,0.0,71,0.00,,,0.00,WUHU216HW,2013-09-03 17:01:00,
2013-09-03 13:06:00,75.4,65.3,29.66,North,0,0.0,0.0,71,0.00,,,0.00,WUHU216HW,2013-09-03 17:06:00,
2013-09-03 13:11:00,76.0,65.9,29.66,North,0,0.0,0.0,71,0.00,,,0.00,WUHU216HW,2013-09-03 17:11:00,
2013-09-03 13:16:00,76.7,66.2,29.66,North,0,0.0,0.0,70,0.00,,,0.00,WUHU216HW,2013-09-03 17:16:00,
2013-09-03 13:21:00,77.4,64.7,29.66,North,0,0.0,0.0,65,0.00,,,0.00,WUHU216HW,2013-09-03 17:21:00,
2013-09-03 13:26:00,77.9,66.5,29.66,North,0,0.0,0.0,68,0.00,,,0.00,WUHU216HW,2013-09-03 17:26:00,
2013-09-03 13:31:00,77.8,66.8,29.66,North,0,0.0,0.0,69,0.00,,,0.00,WUHU216HW,2013-09-03 17:31:00,
2013-09-03 13:36:00,77.6,65.8,29.66,North,0,0.0,0.0,67,0.00,,,0.00,WUHU216HW,2013-09-03 17:36:00,
2013-09-03 13:41:00,77.2,66.8,29.66,North,0,0.0,0.0,70,0.00,,,0.00,WUHU216HW,2013-09-03 17:41:00,
2013-09-03 13:46:00,77.0,65.7,29.66,North,0,0.0,0.0,68,0.00,,,0.00,WUHU216HW,2013-09-03 17:46:00,
2013-09-03 13:51:00,76.7,65.8,29.66,North,0,0.0,0.0,69,0.00,,,0.00,WUHU216HW,2013-09-03 17:51:00,
2013-09-03 13:56:00,75.8,64.4,29.66,North,0,0.0,0.0,68,0.00,,,0.00,WUHU216HW,2013-09-03 17:56:00,
2013-09-03 14:01:00,75.4,64.5,29.66,North,0,0.0,0.0,69,0.00,,,0.00,WUHU216HW,2013-09-03 18:01:00,
2013-09-03 14:06:00,75.1,64.2,29.66,North,0,0.0,0.0,69,0.00,,,0.00,WUHU216HW,2013-09-03 18:06:00,
2013-09-03 14:11:00,74.7,64.7,29.65,North,0,0.0,0.0,71,0.00,,,0.00,WUHU216HW,2013-09-03 18:11:00,
2013-09-03 14:16:00,74.5,64.5,29.65,North,0,0.0,0.0,71,0.00,,,0.00,WUHU216HW,2013-09-03 18:16:00,
2013-09-03 14:21:00,74.5,64.9,29.65,North,0,0.0,0.0,72,0.00,,,0.00,WUHU216HW,2013-09-03 18:21:00,
2013-09-03 14:26:00,74.2,64.6,29.65,North,0,0.0,0.0,72,0.00,,,0.00,WUHU216HW,2013-09-03 18:26:00,
2013-09-03 14:31:00,74.5,64.9,29.65,North,0,0.0,0.0,72,0.00,,,0.00,WUHU216HW,2013-09-03 18:31:00,
2013-09-03 14:36:00,74.5,64.9,29.65,North,0,0.0,0.0,72,0.00,,,0.00,WUHU216HW,2013-09-03 18:36:00,
2013-09-03 14:41:00,74.5,65.4,29.65,North,0,0.0,0.0,73,0.00,,,0.00,WUHU216HW,2013-09-03 18:41:00,
2013-09-03 14:46:00,74.5,64.9,29.65,North,0,0.0,0.0,72,0.00,,,0.00,WUHU216HW,2013-09-03 18:46:00,
2013-09-03 14:51:00,74.5,65.4,29.65,North,0,0.0,0.0,73,0.00,,,0.00,WUHU216HW,2013-09-03 18:51:00,
2013-09-03 14:56:00,74.3,65.2,29.64,North,0,0.0,0.0,73,0.00,,,0.00,WUHU216HW,2013-09-03 18:56:00,
2013-09-03 15:01:00,73.8,64.6,29.65,North,0,0.0,0.0,73,0.00,,,0.00,WUHU216HW,2013-09-03 19:01:00,
2013-09-03 15:06:00,73.8,64.6,29.65,North,0,0.0,0.0,73,0.00,,,0.00,WUHU216HW,2013-09-03 19:06:00,
2013-09-03 15:11:00,73.4,64.4,29.64,North,0,0.0,0.0,73,0.00,,,0.00,WUHU216HW,2013-09-03 19:11:00,
2013-09-03 15:16:00,73.6,63.7,29.64,North,0,0.0,0.0,71,0.00,,,0.00,WUHU216HW,2013-09-03 19:16:00,
2013-09-03 15:21:00,74.0,63.6,29.64,North,0,0.0,0.0,70,0.00,,,0.00,WUHU216HW,2013-09-03 19:21:00,
2013-09-03 15:26:00,74.9,62.3,29.64,North,0,0.0,0.0,65,0.00,,,0.00,WUHU216HW,2013-09-03 19:26:00,
2013-09-03 15:31:00,75.4,64.5,29.64,North,0,0.0,0.0,69,0.00,,,0.00,WUHU216HW,2013-09-03 19:31:00,
2013-09-03 15:36:00,75.6,64.7,29.64,North,0,0.0,0.0,69,0.00,,,0.00,WUHU216HW,2013-09-03 19:36:00,
2013-09-03 15:41:00,75.6,65.5,29.64,North,0,0.0,0.0,71,0.00,,,0.00,WUHU216HW,2013-09-03 19:41:00,
2013-09-03 15:46:00,76.1,64.4,29.64,North,0,0.0,0.0,67,0.00,,,0.00,WUHU216HW,2013-09-03 19:46:00,
2013-09-03 15:51:00,76.0,64.6,29.64,North,0,0.0,0.0,68,0.00,,,0.00,WUHU216HW,2013-09-03 19:51:00,
2013-09-03 15:57:00,76.1,65.3,29.64,North,0,0.0,0.0,69,0.00,,,0.00,WUHU216HW,2013-09-03 19:57:00,
2013-09-03 16:02:00,76.1,65.7,29.64,North,0,0.0,0.0,70,0.00,,,0.00,WUHU216HW,2013-09-03 20:02:00,
2013-09-03 16:07:00,76.1,65.7,29.64,North,0,0.0,0.0,70,0.00,,,0.00,WUHU216HW,2013-09-03 20:07:00,
2013-09-03 16:12:00,76.1,65.3,29.64,North,0,0.0,0.0,69,0.00,,,0.00,WUHU216HW,2013-09-03 20:12:00,
2013-09-03 16:17:00,76.5,66.1,29.64,North,0,0.0,0.0,70,0.00,,,0.00,WUHU216HW,2013-09-03 20:17:00,
2013-09-03 16:22:00,76.1,66.1,29.64,North,0,0.0,0.0,71,0.00,,,0.00,WUHU216HW,2013-09-03 20:22:00,
2013-09-03 16:27:00,76.1,65.7,29.64,North,0,0.0,0.0,70,0.00,,,0.00,WUHU216HW,2013-09-03 20:27:00,
2013-09-03 16:32:00,75.8,64.9,29.64,North,0,0.0,0.0,69,0.00,,,0.00,WUHU216HW,2013-09-03 20:32:00,
2013-09-03 16:37:00,74.7,64.4,29.64,North,0,0.0,0.0,70,0.00,,,0.00,WUHU216HW,2013-09-03 20:37:00,
2013-09-03 16:42:00,74.7,64.7,29.64,North,0,0.0,0.0,71,0.00,,,0.00,WUHU216HW,2013-09-03 20:42:00,
2013-09-03 16:47:00,74.9,64.9,29.64,North,0,0.0,0.0,71,0.00,,,0.00,WUHU216HW,2013-09-03 20:47:00,
2013-09-03 16:52:00,75.1,64.6,29.64,North,0,0.0,0.0,70,0.00,,,0.00,WUHU216HW,2013-09-03 20:52:00,
2013-09-03 16:57:00,74.3,64.4,29.64,North,0,0.0,0.0,71,0.00,,,0.00,WUHU216HW,2013-09-03 20:57:00,
2013-09-03 17:02:00,73.8,63.9,29.64,North,0,0.0,0.0,71,0.00,,,0.00,WUHU216HW,2013-09-03 21:02:00,
2013-09-03 17:07:00,73.4,63.5,29.64,North,0,0.0,0.0,71,0.00,,,0.00,WUHU216HW,2013-09-03 21:07:00,
2013-09-03 17:12:00,72.7,62.8,29.64,North,0,0.0,0.0,71,0.00,,,0.00,WUHU216HW,2013-09-03 21:12:00,
2013-09-03 17:17:00,72.4,62.8,29.64,North,0,0.0,0.0,72,0.00,,,0.00,WUHU216HW,2013-09-03 21:17:00,
2013-09-03 17:22:00,71.5,61.9,29.64,North,0,0.0,0.0,72,0.00,,,0.00,WUHU216HW,2013-09-03 21:22:00,
2013-09-03 17:27:00,70.9,61.4,29.64,North,0,0.0,0.0,72,0.00,,,0.00,WUHU216HW,2013-09-03 21:27:00,
2013-09-03 17:32:00,70.7,61.2,29.64,North,0,0.0,0.0,72,0.00,,,0.00,WUHU216HW,2013-09-03 21:32:00,
2013-09-03 17:37:00,70.4,61.3,29.64,North,0,0.0,0.0,73,0.00,,,0.00,WUHU216HW,2013-09-03 21:37:00,
2013-09-03 17:42:00,70.2,61.1,29.65,North,0,0.0,0.0,73,0.00,,,0.00,WUHU216HW,2013-09-03 21:42:00,
2013-09-03 17:47:00,70.2,61.1,29.65,North,0,0.0,0.0,73,0.00,,,0.00,WUHU216HW,2013-09-03 21:47:00,
2013-09-03 17:52:00,69.8,60.8,29.65,North,0,0.0,0.0,73,0.00,,,0.00,WUHU216HW,2013-09-03 21:52:00,
2013-09-03 17:57:00,69.7,60.9,29.65,North,0,0.0,0.0,74,0.00,,,0.00,WUHU216HW,2013-09-03 21:57:00,
2013-09-03 18:02:00,69.7,60.9,29.65,North,0,0.0,0.0,74,0.00,,,0.00,WUHU216HW,2013-09-03 22:02:00,
2013-09-03 18:07:00,69.5,60.8,29.65,North,0,0.0,0.0,74,0.00,,,0.00,WUHU216HW,2013-09-03 22:07:00,
2013-09-03 18:12:00,69.5,60.4,29.65,North,0,0.0,0.0,73,0.00,,,0.00,WUHU216HW,2013-09-03 22:12:00,
2013-09-03 18:17:00,69.3,60.2,29.65,North,0,0.0,0.0,73,0.00,,,0.00,WUHU216HW,2013-09-03 22:17:00,
2013-09-03 18:22:00,68.9,60.0,29.65,North,0,0.0,0.0,73,0.00,,,0.00,WUHU216HW,2013-09-03 22:22:00,
2013-09-03 18:27:00,68.8,59.8,29.65,North,0,0.0,0.0,73,0.00,,,0.00,WUHU216HW,2013-09-03 22:27:00,
2013-09-03 18:32:00,68.8,59.4,29.65,North,0,0.0,0.0,72,0.00,,,0.00,WUHU216HW,2013-09-03 22:32:00,
2013-09-03 18:37:00,68.8,59.4,29.65,North,0,0.0,0.0,72,0.00,,,0.00,WUHU216HW,2013-09-03 22:37:00,
2013-09-03 18:42:00,68.8,59.4,29.65,North,0,0.0,0.0,72,0.00,,,0.00,WUHU216HW,2013-09-03 22:42:00,
2013-09-03 18:47:00,68.6,59.2,29.65,North,0,0.0,0.0,72,0.00,,,0.00,WUHU216HW,2013-09-03 22:47:00,
2013-09-03 18:52:00,68.4,58.7,29.66,North,0,0.0,0.0,71,0.00,,,0.00,WUHU216HW,2013-09-03 22:52:00,
2013-09-03 18:57:00,68.4,58.7,29.66,North,0,0.0,0.0,71,0.00,,,0.00,WUHU216HW,2013-09-03 22:57:00,
2013-09-03 19:02:00,68.4,58.7,29.66,North,0,0.0,0.0,71,0.00,,,0.00,WUHU216HW,2013-09-03 23:02:00,
2013-09-03 19:07:00,68.2,58.5,29.66,North,0,0.0,0.0,71,0.00,,,0.00,WUHU216HW,2013-09-03 23:07:00,
2013-09-03 19:12:00,67.9,58.1,29.66,North,0,0.0,0.0,71,0.00,,,0.00,WUHU216HW,2013-09-03 23:12:00,
2013-09-03 19:17:00,67.5,57.4,29.66,North,0,0.0,0.0,70,0.00,,,0.00,WUHU216HW,2013-09-03 23:17:00,
2013-09-03 19:22:00,67.0,56.4,29.66,North,0,0.0,0.0,69,0.00,,,0.00,WUHU216HW,2013-09-03 23:22:00,
2013-09-03 19:27:00,66.6,56.5,29.67,North,0,0.0,0.0,70,0.00,,,0.00,WUHU216HW,2013-09-03 23:27:00,
2013-09-03 19:32:00,66.1,55.6,29.67,North,0,0.0,0.0,69,0.00,,,0.00,WUHU216HW,2013-09-03 23:32:00,
2013-09-03 19:37:00,65.9,55.5,29.67,North,0,0.0,0.0,69,0.00,,,0.00,WUHU216HW,2013-09-03 23:37:00,
2013-09-03 19:42:00,65.9,55.0,29.67,North,0,0.0,0.0,68,0.00,,,0.00,WUHU216HW,2013-09-03 23:42:00,
2013-09-03 19:47:00,65.7,54.0,29.68,North,0,0.0,0.0,66,0.00,,,0.00,WUHU216HW,2013-09-03 23:47:00,
2013-09-03 19:52:00,65.5,53.8,29.68,North,0,0.0,0.0,66,0.00,,,0.00,WUHU216HW,2013-09-03 23:52:00,
2013-09-03 19:57:00,65.5,53.8,29.68,North,0,0.0,0.0,66,0.00,,,0.00,WUHU216HW,2013-09-03 23:57:00,
2013-09-03 20:02:00,65.5,53.4,29.68,North,0,0.0,0.0,65,0.00,,,0.00,WUHU216HW,2013-09-04 00:02:00,
2013-09-03 20:07:00,65.2,52.7,29.69,North,0,0.0,0.0,64,0.00,,,0.00,WUHU216HW,2013-09-04 00:07:00,
2013-09-03 20:12:00,65.0,52.5,29.69,North,0,0.0,0.0,64,0.00,,,0.00,WUHU216HW,2013-09-04 00:12:00,
2013-09-03 20:17:00,64.8,52.3,29.69,North,0,0.0,0.0,64,0.00,,,0.00,WUHU216HW,2013-09-04 00:17:00,
2013-09-03 20:22:00,64.8,52.3,29.69,North,0,0.0,0.0,64,0.00,,,0.00,WUHU216HW,2013-09-04 00:22:00,
2013-09-03 20:27:00,64.6,51.3,29.70,North,0,0.0,0.0,62,0.00,,,0.00,WUHU216HW,2013-09-04 00:27:00,
2013-09-03 20:32:00,64.4,50.2,29.70,North,0,0.0,0.0,60,0.00,,,0.00,WUHU216HW,2013-09-04 00:32:00,
2013-09-03 20:37:00,64.3,49.1,29.70,North,0,0.0,0.0,58,0.00,,,0.00,WUHU216HW,2013-09-04 00:37:00,
2013-09-03 20:42:00,64.1,49.9,29.70,North,0,0.0,0.0,60,0.00,,,0.00,WUHU216HW,2013-09-04 00:42:00,
2013-09-03 20:47:00,63.9,50.1,29.70,North,0,0.0,0.0,61,0.00,,,0.00,WUHU216HW,2013-09-04 00:47:00,
2013-09-03 20:52:00,63.7,50.9,29.71,North,0,0.0,0.0,63,0.00,,,0.00,WUHU216HW,2013-09-04 00:52:00,
2013-09-03 20:57:00,63.7,51.7,29.71,North,0,0.0,0.0,65,0.00,,,0.00,WUHU216HW,2013-09-04 00:57:00,
2013-09-03 21:02:00,63.7,51.7,29.71,North,0,0.0,0.0,65,0.00,,,0.00,WUHU216HW,2013-09-04 01:02:00,
2013-09-03 21:07:00,63.7,53.0,29.71,North,0,0.0,0.0,68,0.00,,,0.00,WUHU216HW,2013-09-04 01:07:00,
2013-09-03 21:12:00,64.1,53.3,29.71,North,0,0.0,0.0,68,0.00,,,0.00,WUHU216HW,2013-09-04 01:12:00,
2013-09-03 21:17:00,64.1,52.9,29.71,North,0,0.0,0.0,67,0.00,,,0.00,WUHU216HW,2013-09-04 01:17:00,
2013-09-03 21:22:00,63.4,51.8,29.71,North,0,0.0,0.0,66,0.00,,,0.00,WUHU216HW,2013-09-04 01:22:00,
2013-09-03 21:27:00,63.0,51.0,29.72,North,0,0.0,0.0,65,0.00,,,0.00,WUHU216HW,2013-09-04 01:27:00,
2013-09-03 21:32:00,63.0,51.0,29.71,North,0,0.0,0.0,65,0.00,,,0.00,WUHU216HW,2013-09-04 01:32:00,
2013-09-03 21:37:00,62.5,49.2,29.72,North,0,0.0,0.0,62,0.00,,,0.00,WUHU216HW,2013-09-04 01:37:00,
2013-09-03 21:42:00,62.1,49.0,29.72,North,0,0.0,0.0,62,0.00,,,0.00,WUHU216HW,2013-09-04 01:42:00,
2013-09-03 21:47:00,62.1,49.0,29.72,North,0,0.0,0.0,62,0.00,,,0.00,WUHU216HW,2013-09-04 01:47:00,
2013-09-03 21:52:00,61.9,48.3,29.72,North,0,0.0,0.0,61,0.00,,,0.00,WUHU216HW,2013-09-04 01:52:00,
2013-09-03 21:57:00,61.9,48.0,29.72,North,0,0.0,0.0,60,0.00,,,0.00,WUHU216HW,2013-09-04 01:57:00,
2013-09-03 22:02:00,61.9,48.0,29.72,North,0,0.0,0.0,60,0.00,,,0.00,WUHU216HW,2013-09-04 02:02:00,
2013-09-03 22:07:00,61.9,47.4,29.72,North,0,0.0,0.0,59,0.00,,,0.00,WUHU216HW,2013-09-04 02:07:00,
2013-09-03 22:13:00,61.7,46.8,29.72,North,0,0.0,0.0,58,0.00,,,0.00,WUHU216HW,2013-09-04 02:13:00,
2013-09-03 22:18:00,61.6,46.6,29.72,North,0,0.0,0.0,58,0.00,,,0.00,WUHU216HW,2013-09-04 02:18:00,
2013-09-03 22:23:00,61.4,44.6,29.72,North,0,0.0,0.0,54,0.00,,,0.00,WUHU216HW,2013-09-04 02:23:00,
2013-09-03 22:28:00,61.2,45.4,29.72,North,0,0.0,0.0,56,0.00,,,0.00,WUHU216HW,2013-09-04 02:28:00,
2013-09-03 22:33:00,61.0,45.2,29.72,North,0,0.0,0.0,56,0.00,,,0.00,WUHU216HW,2013-09-04 02:33:00,
2013-09-03 22:38:00,61.0,45.2,29.72,North,0,0.0,0.0,56,0.00,,,0.00,WUHU216HW,2013-09-04 02:38:00,
2013-09-03 22:43:00,60.8,44.1,29.72,North,0,0.0,0.0,54,0.00,,,0.00,WUHU216HW,2013-09-04 02:43:00,
2013-09-03 22:48:00,60.8,43.6,29.73,North,0,0.0,0.0,53,0.00,,,0.00,WUHU216HW,2013-09-04 02:48:00,
2013-09-03 22:53:00,60.8,42.6,29.73,North,0,0.0,0.0,51,0.00,,,0.00,WUHU216HW,2013-09-04 02:53:00,
2013-09-03 22:58:00,61.0,42.3,29.73,North,0,0.0,0.0,50,0.00,,,0.00,WUHU216HW,2013-09-04 02:58:00,
2013-09-03 23:03:00,61.0,41.7,29.73,North,0,0.0,0.0,49,0.00,,,0.00,WUHU216HW,2013-09-04 03:03:00,
2013-09-03 23:08:00,61.2,39.6,29.73,North,0,0.0,0.0,45,0.00,,,0.00,WUHU216HW,2013-09-04 03:08:00,
2013-09-03 23:13:00,61.2,40.1,29.72,North,0,0.0,0.0,46,0.00,,,0.00,WUHU216HW,2013-09-04 03:13:00,
2013-09-03 23:18:00,61.2,39.6,29.72,North,0,0.0,0.0,45,0.00,,,0.00,WUHU216HW,2013-09-04 03:18:00,
2013-09-03 23:23:00,61.2,37.8,29.72,North,0,0.0,0.0,42,0.00,,,0.00,WUHU216HW,2013-09-04 03:23:00,
2013-09-03 23:28:00,61.4,37.5,29.72,North,0,0.0,0.0,41,0.00,,,0.00,WUHU216HW,2013-09-04 03:28:00,
2013-09-03 23:33:00,61.4,37.5,29.72,North,0,0.0,0.0,41,0.00,,,0.00,WUHU216HW,2013-09-04 03:33:00,
2013-09-03 23:38:00,61.4,39.2,29.73,North,0,0.0,0.0,44,0.00,,,0.00,WUHU216HW,2013-09-04 03:38:00,
2013-09-03 23:43:00,61.2,39.6,29.73,North,0,0.0,0.0,45,0.00,,,0.00,WUHU216HW,2013-09-04 03:43:00,
2013-09-03 23:48:00,61.2,40.1,29.73,North,0,0.0,0.0,46,0.00,,,0.00,WUHU216HW,2013-09-04 03:48:00,
2013-09-03 23:53:00,61.4,40.3,29.73,North,0,0.0,0.0,46,0.00,,,0.00,WUHU216HW,2013-09-04 03:53:00,
2013-09-03 23:58:00,61.4,40.9,29.72,North,0,0.0,0.0,47,0.00,,,0.00,WUHU216HW,2013-09-04 03:58:00,